Regional Weather Roundup
Issued by NWS Portland, ME

Current Version | Previous Version | Text Only | Print | Product List | Glossary Off
Versions: 1 2 3 4 5 6 7 8 9 10 11 12 13 14 15 16 17 18 19 20 21 22 23 24 25 26 27 28 29 30 31 32 33 34 35 36 37 38 39 40 41 42 43 44 45 46 47 48 49 50
000 ASUS41 KGYX 200105 RWRGYX WEATHER ROUNDUP FOR MAINE AND NEW HAMPSHIRE NATIONAL WEATHER SERVICE GRAY ME 900 PM EDT TUE JUN 19 2018 MEZ002-005-006-010-012-015-018-020-021-024-026-027-029-200200- MAINE CITY SKY/WX TMP DP RH WIND PRES REMARKS PORTLAND FAIR 68 49 50 NW5 29.82R SANFORD FAIR 61 52 72 W3 29.84R BAR HARBOR FAIR 67 46 47 W5 29.78R WISCASSET FAIR 62 53 72 CALM 29.82R ROCKLAND FAIR 64 50 60 CALM 29.80R FRYEBURG FAIR 62 52 69 CALM 29.85R LEWISTONAUBURN FAIR 68 48 48 NW8 29.83R AUGUSTA FAIR 67 44 43 N7 29.82R WATERVILLE FAIR 66 46 48 NW6 29.80R BANGOR FAIR 67 44 43 W7 29.78R GREENVILLE N/A 60 42 51 NW10 29.79R MILLINOCKET FAIR 62 46 55 CALM 29.78R HOULTON FAIR 61 44 53 W3 29.74R PRESQUE ISLE FAIR 60 45 57 W5 29.74R FRENCHVILLE FAIR 61 43 51 W10 29.73R CARIBOU FAIR 59 46 62 CALM 29.72R $$ NHZ002-005-008-009-011-012-014-200200- NEW HAMPSHIRE CITY SKY/WX TMP DP RH WIND PRES REMARKS PORTSMOUTH PTCLDY 69 46 43 NW9 29.81R ROCHESTER FAIR 68 48 48 CALM 29.83R NASHUA FAIR 69 50 50 W3 29.85R MANCHESTER FAIR 75 46 35 NW14 29.83R CONCORD FAIR 68 47 46 NW8 29.85R LACONIA FAIR 67 48 50 VRB5 29.87R PLYMOUTH FAIR 64 50 61 NW6 29.87R BERLIN FAIR 57 49 74 CALM 29.89R WHITEFIELD FAIR 59 52 77 CALM 29.90R JAFFREY FAIR 63 53 70 CALM 29.89R KEENE FAIR 63 50 62 NE3 29.88R LEBANON FAIR 68 47 46 NW5 29.89R MT WASHINGTON FOG 41 41 100 NW39 N/A VSB 1/16 $$ VTZ005-007-008-200200- VERMONT CITY SKY/WX TMP DP RH WIND PRES REMARKS ST JOHNSBURY N/A 63 53 70 MISG 29.88R MONTPELIER FAIR 61 51 70 CALM 29.95R BURLINGTON FAIR 69 48 47 NW5 29.90R $$ MAZ007-012-024-CTZ003-RIZ002-NYZ038-NYZ072-200200- SOUTHERN NEW ENGLAND AND NY CITY SKY/WX TMP DP RH WIND PRES REMARKS BOSTON FAIR 76 45 33 N9 29.82R WORCESTER FAIR 67 49 52 NW10 29.87R NANTUCKET FAIR 61 58 90 W6 29.83R PROVIDENCE FAIR 75 51 43 NW6 29.83R HARTFORD MOCLDY 72 52 49 N8 29.85R ALBANY FAIR 72 52 49 NW3 29.88R NEW YORK CITY FAIR 82 53 36 NE9 29.83R $$ ANZ081-ANZ082-ANZ150-NHZ014-MEZ023>029-200200- COASTAL MARINE OBSERVATIONS STATION/POSITION TIME TEMP WIND PRES WAVE AIR SEA DIR/SP/G HT/PER (UTC) (F) (DEG/KT/KT) (MB) (FT/S) MOUNT DESERT ROC 0000 65 300/ 14/ 15 1007.6R MATINICUS ROCK 0000 65 300/ 5/ 6 1007.9R ISLE OF SHOALS 0000 74 310/ 14/ 15 1008.6R JEFFREYS LEDGE 0036 61 N/A 2/ 7 $$ .............KEY.............. WCI - WIND CHILL TC - TEMPERATURE IN CELSIUS VSB - VISIBILITY IN MILES HX - HEAT INDEX FAIR- INDICATES FEW OR NO CLOUDS BELOW 12,000 FT, WITH NO SIGNIFICANT WEATHER AND/OR OBSTRUCTIONS TO VISIBILITY.

USA.gov is the U.S. government's official web portal to all federal, state and local government web resources and services.